GEFSMW_con_cape1000_222.txt.gz
Probability
42 48 48 58 65 87 90 94 94 94 97 97 97 94 90 90 87 90 87 90 87 90 94 94 94 90 87 90 81 81 74 68 68 61 45 48 39 39 39 42 42 23 19
48 65 65 68 68 87 94 94 94 94 94 94 97 94 90 90 90 90 84 87 90 94 77 90 90 90 90 90 87 87 84 71 65 58 42 26 39 32 19 35 35 16 23
48 61 61 65 65 87 94 90 94 94 94 97 97 90 94 90 90 87 87 87 84 74 84 84 87 87 87 87 87 77 71 65 58 55 58 48 35 35 39 42 19 23 26
42 61 58 68 74 74 87 94 94 94 97 97 94 90 84 84 90 87 94 94 77 77 81 84 84 84 81 84 77 74 65 61 52 55 61 52 48 32 26 35 29 19 23
42 52 61 74 74 74 81 94 97 97 97 97 97 94 90 87 90 90 94 94 87 84 77 81 84 84 81 74 74 65 65 71 61 58 58 52 45 35 29 16 23 23 16
35 48 58 68 74 74 74 94 97 97 97 94 94 90 87 84 87 87 87 81 84 84 81 81 84 81 71 68 71 68 65 61 61 58 52 52 52 52 39 23 19 10 16
35 55 65 68 74 74 74 90 94 97 97 94 90 90 90 87 87 87 87 77 77 74 81 74 74 77 68 65 68 65 61 61 61 61 58 45 42 45 42 23 13 10 13
39 48 71 81 77 77 87 94 94 97 97 97 90 90 94 87 84 84 84 81 68 61 65 65 68 71 61 52 65 58 48 48 48 42 45 45 45 48 45 35 23 13 10
45 48 65 71 74 74 90 94 97 97 97 97 94 87 84 81 84 81 84 77 71 65 65 65 61 61 65 52 55 52 48 45 35 39 45 42 42 42 42 32 26 16 13
45 52 58 68 77 81 90 97 97 97 97 97 97 84 84 84 84 84 81 81 65 61 61 65 58 61 55 45 45 39 26 29 29 29 32 35 32 35 35 35 29 23 19
52 55 65 65 77 81 87 97 97 97 97 97 97 94 90 87 84 84 77 74 65 61 55 55 55 52 48 35 26 26 23 26 23 23 19 29 32 32 32 35 29 29 19
58 61 65 74 81 81 84 90 97 97 97 94 94 90 90 87 84 81 77 71 65 65 58 55 55 48 35 26 19 19 19 23 26 26 26 23 19 26 26 29 29 26 29
58 65 81 84 84 84 87 87 87 94 97 94 90 87 87 84 84 77 71 71 68 68 61 55 45 29 26 26 19 19 19 19 16 19 19 19 13 19 23 29 26 29 16
90 90 94 94 90 90 94 90 87 84 87 90 90 87 87 84 84 74 68 68 68 65 65 39 35 23 23 16 13 10 10 13 13 16 13 13 16 13 13 13 16 19 16
77 87 90 97 97 90 90 90 90 87 87 90 90 87 87 84 81 68 68 68 65 55 52 48 39 16 13 6 10 6 6 10 10 13 13 13 13 6 6 10 10 6 6
74 87 94 100 97 94 90 90 90 90 87 84 87 84 84 81 74 68 65 61 55 48 39 35 26 16 6 3 3 6 6 10 10 13 13 13 6 0 0 0 0 3 6
81 84 94 97 100 97 94 90 87 84 84 90 87 84 84 77 74 61 61 55 55 45 42 35 26 16 6 3 0 3 6 6 6 10 10 6 0 0 0 0 0 0 0
87 94 90 94 97 90 90 90 87 84 87 87 87 81 84 71 61 65 55 52 48 42 42 35 29 19 6 6 0 0 6 6 6 10 10 6 6 0 0 0 0 3 0
84 87 84 87 84 90 90 94 94 87 87 87 87 84 77 68 61 61 58 48 42 45 39 32 32 26 6 6 0 0 6 6 6 6 6 6 6 0 0 0 3 3 0
74 84 84 81 87 87 81 94 94 90 87 87 84 84 81 68 61 58 55 45 42 35 35 32 29 26 13 6 0 0 6 6 6 6 6 3 0 0 0 0 3 3 0
71 74 84 81 84 87 90 90 94 90 90 87 81 77 77 71 61 52 52 48 39 35 35 35 29 26 23 6 0 0 6 6 6 10 6 3 0 0 0 0 0 0 0
65 74 84 87 84 87 87 90 90 84 87 87 81 77 81 65 55 55 55 52 42 35 35 35 32 26 19 6 3 0 0 6 6 6 3 0 0 0 0 0 0 0 0
61 65 71 87 90 90 87 84 87 87 84 84 87 74 74 65 58 55 52 45 45 32 32 29 29 19 23 10 3 0 0 0 3 6 3 0 0 0 0 0 0 0 0
61 68 68 77 84 87 84 87 90 81 81 81 74 61 65 61 58 55 42 35 35 29 29 23 19 16 16 13 6 3 0 0 0 0 0 0 0 0 0 0 0 0 3
61 61 71 81 77 84 84 84 90 84 84 77 65 61 61 58 61 45 42 32 32 26 29 26 23 23 19 13 6 3 3 3 3 3 3 3 6 3 3 3 3 3 3
61 58 61 58 65 71 74 77 77 81 77 68 61 48 45 58 45 42 32 19 19 13 10 10 6 13 10 0 0 0 0 0 0 0 3 3 3 3 3 3 3 0 0

GEFSMW_con_cape1000_228.txt.gz
Probability
13 19 26 32 35 32 19 19 32 29 26 32 29 23 16 16 13 13 10 10 19 19 13 6 6 3 3 3 6 3 0 0 0 0 0 0 0 0 0 0 0 0 0
16 16 16 39 35 32 23 26 39 32 29 29 29 26 19 23 23 16 19 10 23 19 23 6 6 10 6 3 6 6 6 3 3 3 0 0 0 0 0 3 0 0 0
16 16 16 29 39 39 39 39 39 42 39 32 48 45 35 32 29 19 19 23 23 19 23 16 16 13 13 13 10 13 6 10 3 0 3 0 0 0 0 0 0 0 0
16 16 19 35 42 45 42 48 48 52 55 42 45 45 32 23 26 29 23 29 29 26 23 19 16 19 19 16 19 13 10 13 13 6 3 3 0 3 3 0 0 0 0
19 19 23 35 45 48 48 48 48 55 58 58 42 42 39 35 26 32 39 39 29 29 32 32 26 23 16 19 23 16 13 13 13 10 6 6 3 3 3 3 0 0 3
26 29 23 35 45 55 58 55 52 55 55 55 52 48 48 48 39 32 35 39 23 23 32 26 19 16 19 19 23 16 13 13 13 13 6 6 6 6 3 3 3 3 3
29 29 29 35 42 55 68 55 55 61 58 61 52 48 52 45 39 35 26 19 26 23 26 32 19 23 19 19 13 13 13 10 10 13 13 10 6 6 6 6 3 3 3
23 26 29 35 45 55 55 55 58 61 61 61 65 58 55 55 45 35 29 23 19 26 23 23 23 19 23 23 13 13 10 10 10 13 13 13 6 6 10 3 3 3 3
23 35 29 32 42 52 52 61 61 68 68 68 61 58 58 58 52 45 39 29 26 26 23 23 19 16 19 19 19 13 13 13 13 10 10 6 6 6 6 10 3 3 3
29 32 35 35 42 48 48 55 68 71 74 71 68 68 61 55 48 42 39 39 32 29 26 23 23 19 16 16 16 13 13 13 13 10 6 6 6 6 6 3 3 3 3
39 32 35 39 39 45 52 61 71 74 74 74 71 68 65 58 52 39 35 29 26 26 23 19 13 13 10 10 10 13 6 6 6 6 6 3 3 3 0 0 3 3 3
39 35 42 45 52 55 58 65 71 77 74 74 71 68 61 58 42 39 35 23 23 19 23 16 10 10 6 6 3 3 6 6 3 3 3 3 0 0 0 0 0 3 3
55 52 45 55 58 55 55 71 68 77 77 71 71 65 58 52 39 39 35 26 23 13 16 10 13 10 10 6 3 3 6 6 3 3 3 3 0 0 0 0 0 0 0
42 48 48 55 65 58 55 68 68 74 74 68 68 61 55 52 42 39 32 29 19 16 13 10 10 6 6 6 6 3 6 6 3 3 3 0 0 0 0 0 0 0 0
45 52 45 58 61 58 58 65 71 71 74 68 71 61 52 52 45 42 29 23 19 23 19 10 10 10 6 6 6 6 6 6 6 3 0 0 0 0 0 0 0 0 0
42 48 48 58 52 58 65 65 68 68 71 77 71 65 55 55 48 39 29 26 26 19 16 10 10 6 6 6 6 6 6 6 3 3 0 0 0 3 0 0 0 0 0
45 39 55 48 45 48 55 61 65 71 71 74 74 68 52 45 42 42 32 26 26 16 13 10 10 6 6 6 6 0 3 3 3 3 0 0 0 3 0 0 0 0 0
52 48 58 48 48 48 52 61 65 65 71 74 71 65 48 45 39 39 32 26 26 26 16 10 6 3 3 3 3 0 0 0 3 3 3 0 0 0 0 0 0 0 0
42 45 52 52 42 45 55 61 65 68 65 71 71 52 48 42 39 39 29 29 26 23 19 16 6 6 3 3 0 0 0 0 0 3 3 3 0 0 0 0 0 0 0
29 39 48 48 42 45 48 52 61 65 65 61 61 52 42 39 35 35 26 23 23 23 19 19 10 6 6 3 0 0 0 0 0 0 3 0 0 0 0 0 0 0 0
35 42 48 55 48 52 48 48 48 52 55 52 58 52 45 35 29 29 19 19 23 16 19 19 13 10 6 3 0 0 0 0 0 0 0 3 0 0 0 0 0 0 0
39 42 42 45 45 52 52 48 48 45 52 55 58 55 45 35 32 26 26 26 19 16 16 19 16 13 10 3 3 0 0 0 0 3 3 0 0 0 0 0 0 0 0
39 39 42 42 42 42 48 48 45 42 48 55 58 52 39 32 29 32 23 19 19 16 16 13 16 10 10 3 0 0 0 0 0 0 0 0 0 0 0 0 0 0 0
35 32 35 35 39 42 48 48 48 45 48 45 45 42 32 23 26 26 26 16 16 16 16 19 16 10 10 10 6 3 0 0 0 0 0 0 0 0 0 0 0 0 0
35 32 23 29 29 35 39 39 39 42 39 32 32 35 32 26 23 26 23 19 13 13 16 13 13 16 10 10 3 3 0 0 0 0 0 0 0 0 0 0 0 0 0
23 26 26 29 29 32 26 26 26 26 35 32 32 35 26 23 23 19 23 6 6 6 6 3 3 13 6 6 0 0 0 0 0 0 0 0 0 0 0 0 0 0 0

GEFSMW_con_cape1000_234.txt.gz
Probability
3 3 6 6 6 6 3 3 3 3 3 3 10 13 10 3 3 0 3 3 3 3 0 3 0 0 0 0 0 0 0 0 0 0 3 0 0 0 0 3 3 0 0
10 10 6 10 6 3 3 6 3 3 3 3 3 10 10 6 6 6 3 6 6 6 13 0 0 0 0 3 0 0 0 3 3 3 6 0 0 0 0 0 0 0 0
10 6 6 6 6 6 10 13 13 10 6 3 3 10 6 10 6 6 6 6 6 3 10 6 0 0 0 0 0 6 3 3 3 3 3 3 3 0 3 0 0 3 0
6 6 6 6 6 6 6 13 13 6 6 6 6 6 6 10 10 6 6 6 6 13 13 10 6 10 6 6 3 13 3 6 13 3 3 3 3 3 3 3 3 3 3
10 10 6 6 10 16 16 10 10 13 10 10 6 6 13 6 6 6 6 10 16 16 26 23 16 13 10 10 10 13 13 10 13 13 6 3 3 3 3 3 3 3 3
10 10 10 10 13 13 6 13 10 10 10 10 13 13 13 10 6 10 6 13 13 13 19 26 16 10 10 10 13 13 13 13 13 13 13 10 10 6 3 3 6 6 6
6 10 16 13 19 10 16 16 13 13 16 13 16 16 13 13 13 10 13 13 13 16 23 13 13 10 13 13 10 10 10 10 10 13 13 13 10 6 6 10 6 6 6
13 13 13 16 26 19 19 19 13 16 16 19 23 23 19 19 23 19 19 13 16 19 19 16 13 13 16 16 10 10 10 10 10 10 10 10 10 6 10 10 6 6 3
10 13 13 10 13 23 19 23 13 16 13 26 26 32 29 26 29 26 19 16 19 19 19 13 10 10 6 6 6 6 6 6 6 6 6 3 3 3 6 6 6 6 0
13 16 19 19 16 19 23 19 23 16 23 29 35 39 26 29 35 39 26 23 16 19 16 13 13 6 6 6 6 6 6 6 3 3 3 3 3 3 3 3 3 0 0
19 16 19 19 16 19 19 26 26 32 32 32 29 39 35 42 32 32 35 32 26 16 16 6 10 6 6 6 6 6 6 3 3 3 3 3 3 3 3 3 0 0 0
19 16 16 19 23 16 23 29 29 35 32 32 39 45 35 35 35 32 32 29 23 16 10 6 6 6 6 6 6 3 3 3 3 3 3 3 3 3 3 0 0 0 0
19 23 19 19 19 19 19 32 32 26 29 39 42 39 32 32 35 32 32 16 16 16 13 10 10 6 3 3 3 3 3 3 3 3 3 3 3 3 3 3 0 0 0
23 23 19 19 19 23 29 32 35 35 35 39 48 45 42 42 39 39 26 13 13 10 10 6 6 6 3 3 3 3 3 3 3 3 3 3 3 3 3 3 3 3 0
26 19 23 19 16 19 29 42 45 35 48 52 45 39 48 39 35 35 29 23 13 16 6 6 6 6 6 3 3 3 3 3 3 3 6 6 3 3 3 3 3 3 0
26 19 16 19 23 23 32 35 42 42 45 52 48 48 42 42 32 35 29 19 19 19 13 6 6 6 6 3 3 3 6 6 6 6 6 6 3 3 0 0 0 0 0
26 26 26 32 26 32 29 29 39 35 35 52 48 42 42 42 35 32 23 26 23 16 16 16 13 6 6 3 3 3 3 6 6 3 3 3 3 0 0 0 0 0 0
23 29 29 26 23 23 32 32 35 39 39 48 42 42 39 35 32 23 26 23 19 19 13 16 10 13 13 3 3 0 0 3 6 6 6 6 3 0 0 0 0 0 0
23 26 23 29 26 23 26 35 42 45 48 42 42 35 39 35 32 29 23 19 16 19 19 19 10 6 6 0 0 0 0 0 3 3 3 3 3 0 0 0 0 0 0
19 19 26 23 19 26 29 32 39 39 45 45 39 35 32 35 35 32 26 19 19 16 16 16 13 10 10 3 0 0 0 0 3 3 3 0 0 0 0 0 0 0 0
13 13 19 19 23 29 32 35 39 45 42 35 39 35 32 35 29 23 23 16 16 16 16 10 13 13 10 13 0 0 0 0 3 3 3 3 0 0 0 0 0 0 0
10 10 19 19 23 23 32 29 29 42 32 29 29 35 29 29 26 23 23 13 16 16 16 13 13 16 13 10 6 0 0 0 0 3 3 3 0 0 0 0 0 0 0
16 16 16 16 19 26 26 29 29 29 29 26 26 26 29 29 26 26 23 19 16 13 13 13 10 10 13 13 0 0 0 0 0 0 0 0 0 0 0 0 0 0 0
16 16 16 16 16 16 23 19 23 29 29 29 26 23 26 29 29 23 23 19 16 16 16 13 10 10 10 10 13 3 3 0 0 0 0 0 0 0 0 0 0 0 0
16 19 16 16 19 16 16 26 23 19 19 16 19 19 23 29 26 19 16 16 19 16 13 16 13 13 10 10 0 0 6 3 0 0 0 0 0 0 0 0 0 0 0
13 10 13 19 16 19 19 13 13 10 13 13 13 19 19 23 26 26 13 3 3 3 3 3 3 3 3 3 0 0 0 0 0 0 0 0 3 0 0 0 0 0 0

GEFSMW_con_cape1000_240.txt.gz
Probability
16 13 26 32 45 61 71 74 71 74 81 81 74 77 68 74 77 81 81 74 68 65 71 58 77 65 68 65 65 68 68 65 61 52 45 29 23 29 39 32 35 26 29
19 32 39 45 48 61 68 74 84 81 81 81 90 90 77 77 65 74 77 71 74 84 68 77 61 65 74 74 71 71 61 55 55 52 48 26 23 29 16 32 35 23 26
13 42 52 48 52 58 71 68 84 84 84 84 77 81 81 81 71 74 81 71 74 71 84 71 58 65 61 65 68 68 58 52 52 48 55 42 26 29 23 26 19 23 26
13 32 45 52 58 58 65 74 90 90 94 84 77 77 81 74 77 81 81 77 81 74 71 74 65 61 52 58 55 58 55 58 52 48 61 45 39 32 26 23 19 23 23
13 26 39 61 58 55 55 71 94 94 90 87 87 90 77 74 74 74 84 81 81 74 68 68 65 58 55 58 58 58 58 52 52 52 45 45 45 45 39 26 16 13 16
23 29 35 55 61 55 58 65 90 97 97 94 90 94 87 84 74 77 77 77 71 65 71 65 58 52 55 55 55 55 52 52 52 52 48 42 42 39 35 32 29 23 23
29 29 48 58 65 65 58 68 90 97 97 90 94 90 94 87 87 77 81 74 58 65 68 61 65 55 48 45 52 55 52 45 48 48 42 39 42 39 29 26 16 16 16
39 42 58 68 65 65 68 81 90 97 97 94 94 94 94 81 74 81 74 77 58 55 68 65 61 58 45 45 48 35 35 42 35 32 35 35 42 35 29 32 23 23 13
39 42 48 58 68 68 74 84 97 100 97 94 94 97 94 90 77 81 81 81 74 71 68 68 61 58 52 48 48 32 39 39 35 32 32 32 35 39 35 29 26 23 16
29 42 42 48 65 71 81 84 100 97 97 90 94 87 94 90 84 81 81 77 71 71 71 74 65 55 52 48 45 35 35 32 35 39 45 42 39 29 29 32 29 26 26
39 52 48 61 71 74 77 90 97 97 97 94 94 94 94 87 84 84 74 77 74 74 71 71 68 55 48 52 48 39 32 29 32 29 23 23 26 29 29 29 29 26 26
55 58 52 65 71 74 77 87 94 97 97 97 94 97 94 94 90 87 84 74 74 71 71 71 65 58 52 52 52 52 39 32 29 26 19 19 16 19 19 26 23 26 26
58 65 71 71 74 77 84 84 84 90 87 90 87 87 90 90 84 87 84 77 71 68 68 71 65 58 55 52 48 52 35 29 23 23 23 19 16 19 19 26 26 23 13
65 77 77 84 81 84 84 87 84 84 87 94 87 87 87 87 84 81 81 74 77 74 65 65 68 58 45 45 45 39 39 32 23 23 23 16 13 13 19 19 23 13 13
65 74 81 84 81 81 84 84 84 81 84 84 81 84 81 77 84 81 74 77 71 68 71 71 61 55 48 45 45 39 39 35 26 26 23 23 16 10 10 6 16 13 16
65 68 71 81 84 87 84 84 84 84 84 84 84 81 77 81 77 81 74 74 68 68 65 65 55 48 39 29 16 29 29 35 29 23 23 23 13 3 3 3 0 3 13
61 65 68 77 84 84 84 87 87 84 84 84 84 77 74 77 77 71 74 74 74 74 71 58 52 52 32 19 3 3 29 29 32 26 23 19 16 16 16 3 0 0 0
55 55 58 68 68 77 77 71 68 68 77 77 74 71 71 71 68 71 71 74 74 74 68 55 52 52 35 16 3 3 10 26 35 32 23 19 19 16 19 16 13 10 6
52 55 52 52 55 65 68 65 68 68 71 61 68 65 65 65 61 58 61 61 68 65 55 52 52 52 39 16 0 0 13 23 26 26 19 23 19 19 3 13 19 16 13
48 48 48 48 52 55 61 65 65 61 61 58 61 65 65 61 55 55 61 61 58 55 42 39 32 35 39 13 3 0 16 23 23 26 23 16 13 13 0 13 16 16 19
45 45 45 48 48 48 55 61 58 61 58 58 58 61 65 58 55 55 55 58 45 45 45 45 42 26 23 6 3 0 10 19 23 23 19 19 0 0 0 0 13 13 13
42 42 48 48 48 45 52 58 55 55 48 52 52 55 52 52 52 52 45 39 42 42 42 45 42 29 23 13 6 3 0 6 13 23 23 19 0 0 0 0 0 0 0
42 45 45 45 45 42 52 52 48 42 42 48 48 48 45 45 39 45 42 39 32 32 32 35 35 32 29 16 6 3 0 0 6 13 3 3 0 0 0 0 0 0 0
39 35 39 35 35 35 42 45 45 42 39 42 48 48 48 39 39 45 39 32 29 26 29 32 35 29 26 26 13 6 10 3 0 0 0 0 0 0 0 0 0 0 0
39 39 39 39 26 26 32 35 39 42 39 39 42 32 32 35 45 39 42 32 32 29 32 32 32 32 29 23 10 13 10 6 6 3 3 3 6 6 3 3 6 10 3
29 29 29 29 26 26 26 29 32 35 35 39 39 29 29 29 35 35 29 13 13 10 3 13 19 19 10 3 3 0 0 0 0 0 3 0 0 3 0 6 6 10 6